This demonstration page uses our WeatherBlox Daily Observations layout. Learn more.

Hourly Observations for December 8, 2017

Temp ( °F °C ) Dew Point ( °F °C ) Humidity (%) Winds ( mph kmh ) Pressure ( in mb ) Visibility ( mi km ) Precip ( " mm )
12:15 am 00:15 Clear 25 -3.7 14 -9.9 63 63 W 12 19 30.21 1023 10 16.09344 0 0
12:35 am 00:35 Clear 25 -3.7 15 -9.6 64 64 W 10 17 30.21 1023 10 16.09344 0 0
12:55 am 00:55 Partly Cloudy 25 -3.7 15 -9.4 65 65 W 10 17 30.21 1023 10 16.09344 0 0
1:15 am 01:15 Mostly Cloudy 26 -3.3 17 -8.6 67 67 W 7 11 30.18 1022 10 16.09344 0 0
1:35 am 01:35 Cloudy 28 -2.5 18 -8 66 66 W 7 11 30.15 1021 10 16.09344 0 0
1:55 am 01:55 Mostly Cloudy 30 -1.2 19 -7 65 65 W 8 13 30.12 1020 10 16.09344 0 0
2:15 am 02:15 Partly Cloudy 31 -0.5 20 -6.5 64 64 W 8 13 30.12 1020 10 16.09344 0 0
2:35 am 02:35 Mostly Cloudy 32 0.2 22 -5.8 64 64 W 9 15 30.09 1019 10 16.09344 0 0
2:55 am 02:55 Cloudy 34 1.3 23 -5.1 63 63 WNW 9 15 30.09 1019 10 16.09344 0 0
3:15 am 03:15 Cloudy 35 1.5 23 -5.1 62 62 W 9 15 30.09 1019 10 16.09344 0 0
3:35 am 03:35 Cloudy 33 0.8 22 -5.4 64 64 W 9 15 30.09 1019 10 16.09344 0 0
3:55 am 03:55 Cloudy 33 0.6 22 -5.4 65 65 W 7 11 30.09 1019 10 16.09344 0 0
4:15 am 04:15 Cloudy 33 0.5 22 -5.5 64 64 W 6 9 30.09 1019 10 16.09344 0 0
4:35 am 04:35 Cloudy 33 0.5 22 -5.3 65 65 WNW 6 9 30.09 1019 10 16.09344 0 0
4:55 am 04:55 Mostly Cloudy 32 0 22 -5.3 68 68 W 6 9 30.09 1019 10 16.09344 0 0
5:15 am 05:15 Mostly Cloudy 32 0 23 -5.2 68 68 WNW 5 7 30.09 1019 10 16.09344 0 0
5:35 am 05:35 Partly Cloudy 35 1.7 25 -4.1 66 66 NNW 12 19 30.09 1019 10 16.09344 0 0
5:55 am 05:55 Mostly Cloudy 37 2.9 25 -4 61 61 NNW 9 15 30.06 1018 10 16.09344 0 0
6:15 am 06:15 Cloudy 36 2 25 -4.1 64 64 NNW 9 15 30.09 1019 10 16.09344 0 0
6:35 am 06:35 Mostly Cloudy 36 2.2 25 -4 64 64 NNW 13 20 30.09 1019 10 16.09344 0 0
6:55 am 06:55 Clear 34 1.2 25 -4 69 69 NNW 8 13 30.09 1019 10 16.09344 0 0
7:15 am 07:15 Partly Cloudy 33 0.8 25 -4 71 71 NNW 9 15 30.12 1020 10 16.09344 0 0
7:35 am 07:35 Clear 33 0.8 25 -4.1 70 70 NNW 13 20 30.12 1020 10 16.09344 0 0
7:55 am 07:55 Sunny 32 0 24 -4.5 72 72 NNW 8 13 30.12 1020 10 16.09344 0 0
8:15 am 08:15 Sunny 31 -0.7 24 -4.5 76 76 NNW 15 24 30.18 1022 10 16.09344 0 0
8:35 am 08:35 Sunny 32 0.2 25 -4 74 74 NNW 17 28 30.15 1021 10 16.09344 0 0
8:55 am 08:55 Sunny 33 0.6 25 -3.9 72 72 NNW 17 28 30.15 1021 10 16.09344 0 0
9:15 am 09:15 Sunny 34 1.1 25 -3.8 70 70 NNW 20 31 30.15 1021 10 16.09344 0 0
9:35 am 09:35 Sunny 34 1.3 25 -3.7 70 70 NNW 18 30 30.15 1021 10 16.09344 0 0
9:55 am 09:55 Partly Cloudy 35 1.5 26 -3.6 69 69 N 16 26 30.15 1021 10 16.09344 0 0
10:15 am 10:15 Partly Cloudy 34 1.1 25 -3.7 71 71 N 15 24 30.18 1022 10 16.09344 0 0
10:35 am 10:35 Mostly Cloudy 35 1.4 26 -3.6 70 70 N 14 22 30.18 1022 10 16.09344 0 0
10:55 am 10:55 Mostly Cloudy 36 2.3 26 -3.4 66 66 N 14 22 30.18 1022 10 16.09344 0 0
11:15 am 11:15 Partly Cloudy 37 2.5 26 -3.4 65 65 N 12 19 30.15 1021 10 16.09344 0 0
11:35 am 11:35 Partly Cloudy 36 2.4 25 -3.7 64 64 NNW 20 31 30.15 1021 10 16.09344 0 0
11:55 am 11:55 Sunny 37 3 25 -4.1 60 60 NNW 20 31 30.15 1021 10 16.09344 0 0
12:15 pm 12:15 Sunny 38 3.5 25 -3.9 59 59 N 21 33 30.12 1020 10 16.09344 0 0
12:35 pm 12:35 Sunny 39 3.7 25 -4 58 58 N 17 28 30.12 1020 10 16.09344 0 0
12:55 pm 12:55 Sunny 39 4.1 25 -4.1 56 56 NNW 15 24 30.12 1020 10 16.09344 0 0
1:15 pm 13:15 Sunny 40 4.6 25 -4.1 54 54 NNW 15 24 30.12 1020 10 16.09344 0 0
1:35 pm 13:35 Sunny 40 4.7 24 -4.2 53 53 NNW 18 30 30.12 1020 10 16.09344 0 0
1:55 pm 13:55 Sunny 41 5.2 24 -4.2 51 51 NNW 16 26 30.09 1019 10 16.09344 0 0
2:15 pm 14:15 Sunny 42 5.7 24 -4.2 49 49 NNW 14 22 30.09 1019 10 16.09344 0 0
2:35 pm 14:35 Sunny 42 5.7 24 -4.4 49 49 NNW 15 24 30.09 1019 10 16.09344 0 0
2:55 pm 14:55 Sunny 42 5.7 24 -4.3 49 49 NNW 18 30 30.09 1019 10 16.09344 0 0
3:15 pm 15:15 Sunny 43 6 24 -4.4 48 48 NNW 18 30 30.09 1019 10 16.09344 0 0
3:35 pm 15:35 Sunny 43 6 24 -4.5 47 47 NNW 18 30 30.09 1019 10 16.09344 0 0
3:55 pm 15:55 Sunny 43 6 24 -4.5 47 47 NNW 14 22 30.09 1019 10 16.09344 0 0
4:15 pm 16:15 Sunny 42 5.7 23 -4.8 47 47 NNW 13 20 30.09 1019 10 16.09344 0 0
4:35 pm 16:35 Sunny 41 5.1 22 -5.4 47 47 NNW 13 20 30.09 1019 10 16.09344 0 0
4:55 pm 16:55 Sunny 40 4.6 22 -5.6 48 48 NNW 10 17 30.09 1019 10 16.09344 0 0
5:15 pm 17:15 Clear 39 3.8 22 -5.7 50 50 NNW 9 15 30.09 1019 10 16.09344 0 0
5:35 pm 17:35 Clear 37 3 21 -5.9 52 52 NNW 9 15 30.09 1019 10 16.09344 0 0
5:55 pm 17:55 Clear 36 2.1 21 -6.2 55 55 NW 6 9 30.12 1020 10 16.09344 0 0
6:15 pm 18:15 Clear 34 1.1 20 -6.4 58 58 NW 6 9 30.12 1020 10 16.09344 0 0
6:35 pm 18:35 Clear 33 0.8 20 -6.4 59 59 WNW 6 9 30.12 1020 10 16.09344 0 0
6:55 pm 18:55 Clear 34 1 20 -6.5 58 58 WNW 7 11 30.12 1020 10 16.09344 0 0
7:15 pm 19:15 Clear 33 0.6 20 -6.5 59 59 W 7 11 30.12 1020 10 16.09344 0 0
7:35 pm 19:35 Clear 35 1.4 21 -6.2 57 57 WNW 8 13 30.12 1020 10 16.09344 0 0
7:55 pm 19:55 Clear 35 1.5 21 -6.1 57 57 WNW 8 13 30.12 1020 10 16.09344 0 0
8:15 pm 20:15 Clear 35 1.6 22 -5.6 59 59 WNW 9 15 30.12 1020 10 16.09344 0 0
8:35 pm 20:35 Clear 36 2.2 22 -5.3 58 58 WNW 9 15 30.12 1020 10 16.09344 0 0
8:55 pm 20:55 Clear 37 2.6 23 -5 58 58 WNW 12 19 30.12 1020 10 16.09344 0 0
9:15 pm 21:15 Clear 38 3.1 24 -4.7 57 57 NW 12 19 30.09 1019 10 16.09344 0 0
9:35 pm 21:35 Clear 38 3.5 24 -4.6 56 56 NW 13 20 30.09 1019 10 16.09344 0 0
9:55 pm 21:55 Clear 37 3 23 -4.8 57 57 NW 12 19 30.15 1021 10 16.09344 0 0
10:15 pm 22:15 Clear 37 3 24 -4.7 57 57 NW 14 22 30.15 1021 10 16.09344 0 0
10:35 pm 22:35 Clear 37 2.5 24 -4.7 59 59 NW 13 20 30.15 1021 10 16.09344 0 0
10:55 pm 22:55 Clear 36 2 23 -4.8 61 61 NW 13 20 30.15 1021 10 16.09344 0 0
11:15 pm 23:15 Clear 34 1.2 23 -4.9 64 64 NW 12 19 30.15 1021 10 16.09344 0 0
11:35 pm 23:35 Clear 34 1.1 23 -4.9 65 65 NW 12 19 30.18 1022 10 16.09344 0 0
11:55 pm 23:55 Clear 34 0.9 23 -5 65 65 NW 13 20 30.18 1022 10 16.09344 0 0

Powered by AerisWeather